Time,TemperatureF,DewpointF,PressureIn,WindDirection,WindDirectionDegrees,WindSpeedMPH,WindSpeedGustMPH,Humidity,HourlyPrecipIn,Conditions,Clouds,dailyrainin,SoftwareType,DateUTC
2013-01-03 00:02:00,29.5,28.7,30.08,East,90,0.0,0.0,97,0.00,CLR,,0.00,WeatherDisplay:10.37,2013-01-03 08:02:00,
2013-01-03 00:07:00,29.5,28.7,30.08,West,270,1.1,0.0,97,0.00,CLR,,0.00,WeatherDisplay:10.37,2013-01-03 08:07:00,
2013-01-03 00:12:00,29.5,28.7,30.08,South,180,1.1,0.0,97,0.00,CLR,,0.00,WeatherDisplay:10.37,2013-01-03 08:12:00,
2013-01-03 00:17:00,29.3,28.6,30.08,SW,225,1.1,0.0,97,0.00,CLR,,0.00,WeatherDisplay:10.37,2013-01-03 08:17:00,
2013-01-03 00:22:00,29.1,28.4,30.08,West,270,0.0,0.0,97,0.00,CLR,,0.00,WeatherDisplay:10.37,2013-01-03 08:22:00,
2013-01-03 00:27:00,28.9,28.2,30.08,West,270,0.0,0.0,97,0.00,CLR,,0.00,WeatherDisplay:10.37,2013-01-03 08:27:00,
2013-01-03 00:33:00,28.9,28.2,30.08,West,270,0.0,0.0,97,0.00,CLR,,0.00,WeatherDisplay:10.37,2013-01-03 08:33:00,
2013-01-03 00:38:00,28.9,28.2,30.08,SW,225,1.1,0.0,97,0.00,CLR,,0.00,WeatherDisplay:10.37,2013-01-03 08:38:00,
2013-01-03 00:42:00,28.8,28.0,30.08,SW,225,1.1,0.0,97,0.00,CLR,,0.00,WeatherDisplay:10.37,2013-01-03 08:42:00,
2013-01-03 00:48:00,28.8,28.0,30.07,South,180,0.0,0.0,97,0.00,CLR,,0.00,WeatherDisplay:10.37,2013-01-03 08:48:00,
2013-01-03 00:53:00,28.8,28.0,30.07,NW,315,1.1,0.0,97,0.00,CLR,,0.00,WeatherDisplay:10.37,2013-01-03 08:53:00,
2013-01-03 00:58:00,28.8,28.0,30.07,North,0,1.1,0.0,97,0.00,CLR,,0.00,WeatherDisplay:10.37,2013-01-03 08:58:00,
2013-01-03 01:03:00,28.8,28.0,30.07,SW,225,0.0,0.0,97,0.00,CLR,,0.00,WeatherDisplay:10.37,2013-01-03 09:03:00,
2013-01-03 01:08:00,28.6,27.8,30.07,South,180,1.1,0.0,97,0.00,CLR,,0.00,WeatherDisplay:10.37,2013-01-03 09:08:00,
2013-01-03 01:13:00,28.6,27.8,30.06,NE,45,1.1,0.0,97,0.00,CLR,,0.00,WeatherDisplay:10.37,2013-01-03 09:13:00,
2013-01-03 01:18:00,28.4,27.7,30.06,North,0,0.0,0.0,97,0.00,CLR,,0.00,WeatherDisplay:10.37,2013-01-03 09:18:00,
2013-01-03 01:23:00,28.4,27.7,30.06,SW,225,0.0,0.0,97,0.00,CLR,,0.00,WeatherDisplay:10.37,2013-01-03 09:23:00,
2013-01-03 01:28:00,28.4,27.7,30.06,SW,225,0.0,0.0,97,0.00,CLR,,0.00,WeatherDisplay:10.37,2013-01-03 09:28:00,
2013-01-03 01:33:00,28.4,27.7,30.06,SW,225,0.0,0.0,97,0.00,CLR,,0.00,WeatherDisplay:10.37,2013-01-03 09:33:00,
2013-01-03 01:38:00,28.2,27.5,30.06,West,270,1.1,0.0,97,0.00,CLR,,0.00,WeatherDisplay:10.37,2013-01-03 09:38:00,
2013-01-03 01:43:00,28.2,27.5,30.06,West,270,1.1,0.0,97,0.00,CLR,,0.00,WeatherDisplay:10.37,2013-01-03 09:43:00,
2013-01-03 01:48:00,28.2,27.5,30.05,SW,225,0.0,0.0,97,0.00,CLR,,0.00,WeatherDisplay:10.37,2013-01-03 09:48:00,
2013-01-03 01:53:00,28.2,27.5,30.05,SW,225,0.0,0.0,97,0.00,CLR,,0.00,WeatherDisplay:10.37,2013-01-03 09:53:00,
2013-01-03 01:58:00,28.0,27.3,30.05,SW,225,0.0,0.0,97,0.00,CLR,,0.00,WeatherDisplay:10.37,2013-01-03 09:58:00,
2013-01-03 02:03:00,28.0,27.3,30.06,West,270,0.0,0.0,97,0.00,CLR,,0.00,WeatherDisplay:10.37,2013-01-03 10:03:00,
2013-01-03 02:08:00,28.0,27.3,30.06,SW,225,0.0,0.0,97,0.00,CLR,,0.00,WeatherDisplay:10.37,2013-01-03 10:08:00,
2013-01-03 02:13:00,28.0,27.3,30.06,SW,225,0.0,0.0,97,0.00,CLR,,0.00,WeatherDisplay:10.37,2013-01-03 10:13:00,
2013-01-03 02:18:00,28.0,27.5,30.06,SW,225,0.0,0.0,98,0.00,CLR,,0.00,WeatherDisplay:10.37,2013-01-03 10:18:00,
2013-01-03 02:23:00,28.0,27.3,30.06,SW,225,0.0,0.0,97,0.00,CLR,,0.00,WeatherDisplay:10.37,2013-01-03 10:23:00,
2013-01-03 02:28:00,27.9,27.1,30.06,SW,225,0.0,0.0,97,0.00,CLR,,0.00,WeatherDisplay:10.37,2013-01-03 10:28:00,
2013-01-03 02:33:00,27.9,27.1,30.06,SW,225,0.0,0.0,97,0.00,CLR,,0.00,WeatherDisplay:10.37,2013-01-03 10:33:00,
2013-01-03 02:38:00,27.9,27.1,30.06,SW,225,0.0,0.0,97,0.00,CLR,,0.00,WeatherDisplay:10.37,2013-01-03 10:38:00,
2013-01-03 02:43:00,27.9,27.4,30.06,SW,225,0.0,0.0,98,0.00,CLR,,0.00,WeatherDisplay:10.37,2013-01-03 10:43:00,
2013-01-03 02:48:00,27.9,27.4,30.06,SW,225,0.0,0.0,98,0.00,CLR,,0.00,WeatherDisplay:10.37,2013-01-03 10:48:00,
2013-01-03 02:53:00,27.9,27.1,30.06,SW,225,0.0,0.0,97,0.00,CLR,,0.00,WeatherDisplay:10.37,2013-01-03 10:53:00,
2013-01-03 02:58:00,27.9,27.1,30.06,SW,225,0.0,0.0,97,0.00,CLR,,0.00,WeatherDisplay:10.37,2013-01-03 10:58:00,
2013-01-03 03:03:00,27.9,27.4,30.06,SW,225,0.0,0.0,98,0.00,CLR,,0.00,WeatherDisplay:10.37,2013-01-03 11:03:00,
2013-01-03 03:08:00,28.0,27.5,30.06,SW,225,0.0,0.0,98,0.00,CLR,,0.00,WeatherDisplay:10.37,2013-01-03 11:08:00,
2013-01-03 03:13:00,28.0,27.3,30.06,NW,315,0.0,0.0,97,0.00,CLR,,0.00,WeatherDisplay:10.37,2013-01-03 11:13:00,
2013-01-03 03:18:00,28.0,27.5,30.06,North,0,0.0,0.0,98,0.00,CLR,,0.00,WeatherDisplay:10.37,2013-01-03 11:18:00,
2013-01-03 03:23:00,28.2,27.7,30.06,North,0,0.0,0.0,98,0.00,CLR,,0.00,WeatherDisplay:10.37,2013-01-03 11:23:00,
2013-01-03 03:28:00,28.2,27.7,30.06,West,270,0.0,0.0,98,0.00,CLR,,0.00,WeatherDisplay:10.37,2013-01-03 11:28:00,
2013-01-03 03:33:00,28.2,27.7,30.06,NW,315,0.0,0.0,98,0.00,CLR,,0.00,WeatherDisplay:10.37,2013-01-03 11:33:00,
2013-01-03 03:38:00,28.2,27.7,30.06,SW,225,0.0,0.0,98,0.00,CLR,,0.00,WeatherDisplay:10.37,2013-01-03 11:38:00,
2013-01-03 03:43:00,28.2,27.7,30.06,SW,225,0.0,0.0,98,0.00,CLR,,0.00,WeatherDisplay:10.37,2013-01-03 11:43:00,
2013-01-03 03:48:00,28.0,27.5,30.06,NE,45,0.0,0.0,98,0.00,CLR,,0.00,WeatherDisplay:10.37,2013-01-03 11:48:00,
2013-01-03 03:53:00,28.2,27.7,30.06,NE,45,0.0,0.0,98,0.00,CLR,,0.00,WeatherDisplay:10.37,2013-01-03 11:53:00,
2013-01-03 03:58:00,28.2,27.7,30.05,NW,315,0.0,0.0,98,0.00,CLR,,0.00,WeatherDisplay:10.37,2013-01-03 11:58:00,
2013-01-03 04:03:00,28.2,27.7,30.05,West,270,0.0,0.0,98,0.00,CLR,,0.00,WeatherDisplay:10.37,2013-01-03 12:03:00,
2013-01-03 04:08:00,28.0,27.5,30.05,SW,225,0.0,0.0,98,0.00,CLR,,0.00,WeatherDisplay:10.37,2013-01-03 12:08:00,
2013-01-03 04:13:00,27.9,27.4,30.05,West,270,0.0,0.0,98,0.00,CLR,,0.00,WeatherDisplay:10.37,2013-01-03 12:13:00,
2013-01-03 04:18:00,27.9,27.4,30.05,SW,225,0.0,0.0,98,0.00,CLR,,0.00,WeatherDisplay:10.37,2013-01-03 12:18:00,
2013-01-03 04:23:00,27.9,27.4,30.04,SW,225,0.0,0.0,98,0.00,CLR,,0.00,WeatherDisplay:10.37,2013-01-03 12:23:00,
2013-01-03 04:28:00,27.9,27.4,30.04,NE,45,0.0,0.0,98,0.00,CLR,,0.00,WeatherDisplay:10.37,2013-01-03 12:28:00,
2013-01-03 04:33:00,27.9,27.4,30.04,NE,45,0.0,0.0,98,0.00,CLR,,0.00,WeatherDisplay:10.37,2013-01-03 12:33:00,
2013-01-03 04:38:00,27.7,27.2,30.04,West,270,0.0,0.0,98,0.00,CLR,,0.00,WeatherDisplay:10.37,2013-01-03 12:38:00,
2013-01-03 04:43:00,27.7,27.2,30.04,West,270,0.0,0.0,98,0.00,CLR,,0.00,WeatherDisplay:10.37,2013-01-03 12:43:00,
2013-01-03 04:48:00,27.7,27.2,30.04,West,270,0.0,0.0,98,0.00,CLR,,0.00,WeatherDisplay:10.37,2013-01-03 12:48:00,
2013-01-03 04:53:00,27.5,27.0,30.04,West,270,0.0,0.0,98,0.00,CLR,,0.00,WeatherDisplay:10.37,2013-01-03 12:53:00,
2013-01-03 04:58:00,27.5,27.0,30.04,West,270,0.0,0.0,98,0.00,CLR,,0.00,WeatherDisplay:10.37,2013-01-03 12:58:00,
2013-01-03 05:04:00,27.5,27.0,30.04,West,270,0.0,0.0,98,0.00,CLR,,0.00,WeatherDisplay:10.37,2013-01-03 13:04:00,
2013-01-03 05:09:00,27.5,27.0,30.04,West,270,0.0,0.0,98,0.00,CLR,,0.00,WeatherDisplay:10.37,2013-01-03 13:09:00,
2013-01-03 05:14:00,27.7,27.2,30.03,East,90,0.0,0.0,98,0.00,CLR,,0.00,WeatherDisplay:10.37,2013-01-03 13:14:00,
2013-01-03 05:19:00,27.7,27.2,30.03,NW,315,0.0,0.0,98,0.00,CLR,,0.00,WeatherDisplay:10.37,2013-01-03 13:19:00,
2013-01-03 05:24:00,27.9,27.4,30.03,West,270,0.0,0.0,98,0.00,CLR,,0.00,WeatherDisplay:10.37,2013-01-03 13:24:00,
2013-01-03 05:29:00,27.9,27.4,30.03,SW,225,0.0,0.0,98,0.00,CLR,,0.00,WeatherDisplay:10.37,2013-01-03 13:29:00,
2013-01-03 05:34:00,27.9,27.4,30.03,SW,225,0.0,0.0,98,0.00,CLR,,0.00,WeatherDisplay:10.37,2013-01-03 13:34:00,
2013-01-03 05:39:00,28.0,27.5,30.03,SW,225,0.0,0.0,98,0.00,CLR,,0.00,WeatherDisplay:10.37,2013-01-03 13:39:00,
2013-01-03 05:44:00,28.2,27.7,30.03,SW,225,0.0,0.0,98,0.00,CLR,,0.00,WeatherDisplay:10.37,2013-01-03 13:44:00,
2013-01-03 05:49:00,28.6,28.1,30.04,SW,225,0.0,0.0,98,0.00,CLR,,0.00,WeatherDisplay:10.37,2013-01-03 13:49:00,
2013-01-03 05:54:00,28.8,28.3,30.03,SW,225,0.0,0.0,98,0.00,CLR,,0.00,WeatherDisplay:10.37,2013-01-03 13:54:00,
2013-01-03 05:59:00,28.9,28.4,30.03,NE,45,0.0,0.0,98,0.00,CLR,,0.00,WeatherDisplay:10.37,2013-01-03 13:59:00,
2013-01-03 06:04:00,29.1,28.6,30.03,North,0,0.0,0.0,98,0.00,CLR,,0.00,WeatherDisplay:10.37,2013-01-03 14:04:00,
2013-01-03 06:09:00,29.3,28.8,30.04,West,270,0.0,0.0,98,0.00,CLR,,0.00,WeatherDisplay:10.37,2013-01-03 14:09:00,
2013-01-03 06:14:00,29.5,29.0,30.03,North,0,0.0,0.0,98,0.00,CLR,,0.00,WeatherDisplay:10.37,2013-01-03 14:14:00,
2013-01-03 06:19:00,29.7,29.2,30.03,South,180,0.0,0.0,98,0.00,CLR,,0.00,WeatherDisplay:10.37,2013-01-03 14:19:00,
2013-01-03 06:24:00,29.8,29.3,30.03,South,180,0.0,0.0,98,0.00,CLR,,0.00,WeatherDisplay:10.37,2013-01-03 14:24:00,
2013-01-03 06:29:00,30.0,29.5,30.03,SE,135,0.0,0.0,98,0.00,CLR,,0.00,WeatherDisplay:10.37,2013-01-03 14:29:00,
2013-01-03 06:34:00,30.2,29.7,30.03,West,270,0.0,0.0,98,0.00,CLR,,0.00,WeatherDisplay:10.37,2013-01-03 14:34:00,
2013-01-03 06:39:00,30.2,29.7,30.03,SW,225,0.0,0.0,98,0.00,CLR,,0.00,WeatherDisplay:10.37,2013-01-03 14:39:00,
2013-01-03 06:44:00,30.2,29.7,30.03,NW,315,0.0,0.0,98,0.00,CLR,,0.00,WeatherDisplay:10.37,2013-01-03 14:44:00,
2013-01-03 06:49:00,30.4,29.9,30.03,NW,315,0.0,0.0,98,0.00,CLR,,0.00,WeatherDisplay:10.37,2013-01-03 14:49:00,
2013-01-03 06:54:00,30.6,30.1,30.03,West,270,0.0,0.0,98,0.00,CLR,,0.00,WeatherDisplay:10.37,2013-01-03 14:54:00,
2013-01-03 06:59:00,30.6,30.1,30.03,SW,225,0.0,0.0,98,0.00,CLR,,0.00,WeatherDisplay:10.37,2013-01-03 14:59:00,
2013-01-03 07:04:00,30.6,30.1,30.03,West,270,0.0,0.0,98,0.00,CLR,,0.00,WeatherDisplay:10.37,2013-01-03 15:04:00,
2013-01-03 07:09:00,30.6,30.1,30.03,West,270,0.0,0.0,98,0.00,CLR,,0.00,WeatherDisplay:10.37,2013-01-03 15:09:00,
2013-01-03 07:14:00,30.7,30.2,30.03,SW,225,0.0,0.0,98,0.00,CLR,,0.00,WeatherDisplay:10.37,2013-01-03 15:14:00,
2013-01-03 07:19:00,30.7,30.2,30.03,SW,225,0.0,0.0,98,0.00,CLR,,0.00,WeatherDisplay:10.37,2013-01-03 15:19:00,
2013-01-03 07:24:00,30.9,30.4,30.03,West,270,0.0,0.0,98,0.00,CLR,,0.00,WeatherDisplay:10.37,2013-01-03 15:24:00,
2013-01-03 07:29:00,31.1,30.6,30.03,NW,315,0.0,0.0,98,0.00,CLR,,0.00,WeatherDisplay:10.37,2013-01-03 15:29:00,
2013-01-03 07:34:00,31.1,30.6,30.03,East,90,0.0,0.0,98,0.00,CLR,,0.00,WeatherDisplay:10.37,2013-01-03 15:34:00,
2013-01-03 07:39:00,31.5,31.0,30.03,West,270,0.0,0.0,98,0.00,CLR,,0.00,WeatherDisplay:10.37,2013-01-03 15:39:00,
2013-01-03 07:44:00,31.5,31.0,30.03,West,270,0.0,0.0,98,0.00,CLR,,0.00,WeatherDisplay:10.37,2013-01-03 15:44:00,
2013-01-03 07:49:00,31.6,31.1,30.03,West,270,0.0,0.0,98,0.00,CLR,,0.00,WeatherDisplay:10.37,2013-01-03 15:49:00,
2013-01-03 07:54:00,31.6,31.4,30.04,South,180,0.0,0.0,99,0.00,CLR,,0.00,WeatherDisplay:10.37,2013-01-03 15:54:00,
2013-01-03 07:59:00,31.8,31.3,30.03,West,270,0.0,0.0,98,0.00,CLR,,0.00,WeatherDisplay:10.37,2013-01-03 15:59:00,
2013-01-03 08:04:00,31.8,31.3,30.04,NE,45,0.0,0.0,98,0.00,CLR,,0.00,WeatherDisplay:10.37,2013-01-03 16:04:00,
2013-01-03 08:09:00,31.8,31.3,30.04,West,270,0.0,0.0,98,0.00,CLR,,0.00,WeatherDisplay:10.37,2013-01-03 16:09:00,
2013-01-03 08:14:00,32.0,31.8,30.04,West,270,0.0,0.0,99,0.00,CLR,,0.00,WeatherDisplay:10.37,2013-01-03 16:14:00,
2013-01-03 08:19:00,32.2,31.7,30.04,NE,45,0.0,0.0,98,0.00,CLR,,0.00,WeatherDisplay:10.37,2013-01-03 16:19:00,
2013-01-03 08:24:00,32.2,31.9,30.04,South,180,0.0,0.0,99,0.00,CLR,,0.00,WeatherDisplay:10.37,2013-01-03 16:24:00,
2013-01-03 08:29:00,32.2,31.9,30.05,South,180,0.0,0.0,99,0.00,CLR,,0.00,WeatherDisplay:10.37,2013-01-03 16:29:00,
2013-01-03 08:34:00,32.2,31.9,30.05,SW,225,0.0,0.0,99,0.00,CLR,,0.00,WeatherDisplay:10.37,2013-01-03 16:34:00,
2013-01-03 08:39:00,32.4,31.9,30.05,SW,225,0.0,0.0,98,0.00,CLR,,0.00,WeatherDisplay:10.37,2013-01-03 16:39:00,
2013-01-03 08:44:00,32.4,31.9,30.05,South,180,0.0,0.0,98,0.00,CLR,,0.00,WeatherDisplay:10.37,2013-01-03 16:44:00,
2013-01-03 08:49:00,32.4,32.1,30.05,SW,225,0.0,0.0,99,0.00,CLR,,0.00,WeatherDisplay:10.37,2013-01-03 16:49:00,
2013-01-03 08:54:00,32.5,32.0,30.06,West,270,0.0,0.0,98,0.00,CLR,,0.00,WeatherDisplay:10.37,2013-01-03 16:54:00,
2013-01-03 08:59:00,32.5,32.0,30.05,West,270,0.0,0.0,98,0.00,CLR,,0.00,WeatherDisplay:10.37,2013-01-03 16:59:00,
2013-01-03 09:04:00,32.5,32.3,30.06,South,180,0.0,0.0,99,0.00,CLR,,0.00,WeatherDisplay:10.37,2013-01-03 17:04:00,
2013-01-03 09:09:00,32.5,32.3,30.06,South,180,0.0,0.0,99,0.00,CLR,,0.00,WeatherDisplay:10.37,2013-01-03 17:09:00,
2013-01-03 09:14:00,32.7,32.5,30.06,SW,225,0.0,0.0,99,0.00,CLR,,0.00,WeatherDisplay:10.37,2013-01-03 17:14:00,
2013-01-03 09:19:00,32.9,32.7,30.06,SW,225,1.1,0.0,99,0.00,CLR,,0.00,WeatherDisplay:10.37,2013-01-03 17:19:00,
2013-01-03 09:24:00,33.1,32.8,30.07,SW,225,0.0,0.0,99,0.00,CLR,,0.00,WeatherDisplay:10.37,2013-01-03 17:24:00,
2013-01-03 09:29:00,33.3,33.0,30.07,SW,225,2.3,2.3,99,0.00,CLR,,0.00,WeatherDisplay:10.37,2013-01-03 17:29:00,
2013-01-03 09:33:00,33.4,33.2,30.07,SW,225,2.3,2.3,99,0.00,CLR,,0.00,WeatherDisplay:10.37,2013-01-03 17:33:00,
2013-01-03 09:34:00,33.4,33.2,30.07,SW,225,2.3,2.3,99,0.00,CLR,,0.00,WeatherDisplay:10.37,2013-01-03 17:34:00,
2013-01-03 09:39:00,33.4,33.2,30.07,SW,225,2.3,2.3,99,0.00,CLR,,0.00,WeatherDisplay:10.37,2013-01-03 17:39:00,
2013-01-03 09:50:00,34.5,34.3,30.08,NE,45,1.1,1.1,99,0.02,CLR,,0.02,WeatherDisplay:10.37,2013-01-03 17:50:00,
2013-01-03 09:55:00,34.9,34.6,30.09,West,270,1.1,0.0,99,0.02,CLR,,0.02,WeatherDisplay:10.37,2013-01-03 17:55:00,
2013-01-03 12:02:00,56.3,45.9,30.07,North,0,2.3,0.0,68,0.00,CLR,,0.00,WeatherDisplay:10.37,2013-01-03 20:02:00,
2013-01-03 12:07:00,54.9,46.0,30.07,South,180,1.1,0.0,72,0.00,CLR,,0.00,WeatherDisplay:10.37,2013-01-03 20:07:00,
2013-01-03 12:28:00,50.4,42.7,30.06,South,180,4.6,4.6,75,0.00,CLR,,0.00,WeatherDisplay:10.37,2013-01-03 20:28:00,
2013-01-03 12:33:00,51.1,43.4,30.06,South,180,5.8,5.8,75,0.00,CLR,,0.00,WeatherDisplay:10.37,2013-01-03 20:33:00,
2013-01-03 12:38:00,52.2,43.0,30.06,South,180,10.4,10.4,71,0.00,CLR,,0.00,WeatherDisplay:10.37,2013-01-03 20:38:00,
2013-01-03 12:43:00,53.2,43.3,30.06,SW,225,7.6,7.6,69,0.00,CLR,,0.00,WeatherDisplay:10.37,2013-01-03 20:43:00,
2013-01-03 12:48:00,53.8,43.5,30.06,SW,225,11.5,11.5,68,0.00,CLR,,0.00,WeatherDisplay:10.37,2013-01-03 20:48:00,
2013-01-03 12:53:00,54.0,42.9,30.06,South,180,10.4,10.4,66,0.00,CLR,,0.00,WeatherDisplay:10.37,2013-01-03 20:53:00,
2013-01-03 12:58:00,54.1,42.6,30.06,SSE,158,10.4,10.4,65,0.00,CLR,,0.00,WeatherDisplay:10.37,2013-01-03 20:58:00,
2013-01-03 13:14:00,53.8,42.7,30.06,South,180,6.9,6.9,66,0.00,CLR,,0.00,WeatherDisplay:10.37,2013-01-03 21:14:00,
2013-01-03 13:19:00,54.0,43.2,30.06,South,180,8.1,8.1,67,0.00,CLR,,0.00,WeatherDisplay:10.37,2013-01-03 21:19:00,
2013-01-03 13:24:00,54.0,43.2,30.06,South,180,10.4,10.4,67,0.00,CLR,,0.00,WeatherDisplay:10.37,2013-01-03 21:24:00,
2013-01-03 13:29:00,54.0,43.6,30.06,South,180,5.8,5.8,68,0.00,CLR,,0.00,WeatherDisplay:10.37,2013-01-03 21:29:00,
2013-01-03 13:34:00,54.0,43.6,30.06,SW,225,4.6,4.6,68,0.00,CLR,,0.00,WeatherDisplay:10.37,2013-01-03 21:34:00,
2013-01-03 13:39:00,53.8,43.5,30.06,South,180,8.1,8.1,68,0.00,CLR,,0.00,WeatherDisplay:10.37,2013-01-03 21:39:00,
2013-01-03 13:45:00,54.0,44.0,30.06,South,180,4.6,0.0,69,0.00,CLR,,0.00,WeatherDisplay:10.37,2013-01-03 21:45:00,
2013-01-03 13:50:00,53.6,44.4,30.06,South,180,3.5,3.5,71,0.00,CLR,,0.00,WeatherDisplay:10.37,2013-01-03 21:50:00,
2013-01-03 13:55:00,53.6,44.4,30.06,South,180,5.8,5.8,71,0.00,CLR,,0.00,WeatherDisplay:10.37,2013-01-03 21:55:00,
2013-01-03 14:00:00,54.1,44.2,30.06,SE,135,5.8,5.8,69,0.00,CLR,,0.00,WeatherDisplay:10.37,2013-01-03 22:00:00,
2013-01-03 14:05:00,54.7,44.3,30.06,SW,225,8.1,8.1,68,0.00,CLR,,0.00,WeatherDisplay:10.37,2013-01-03 22:05:00,
2013-01-03 14:10:00,54.7,44.3,30.06,South,180,5.8,5.8,68,0.00,CLR,,0.00,WeatherDisplay:10.37,2013-01-03 22:10:00,
2013-01-03 14:15:00,54.7,44.3,30.07,South,180,5.8,5.8,68,0.00,CLR,,0.00,WeatherDisplay:10.37,2013-01-03 22:15:00,
2013-01-03 14:20:00,54.9,43.7,30.07,SW,225,6.9,6.9,66,0.00,CLR,,0.00,WeatherDisplay:10.37,2013-01-03 22:20:00,
2013-01-03 14:25:00,54.9,43.7,30.07,South,180,10.4,10.4,66,0.00,CLR,,0.00,WeatherDisplay:10.37,2013-01-03 22:25:00,
2013-01-03 14:30:00,54.9,43.7,30.07,South,180,9.2,9.2,66,0.00,CLR,,0.00,WeatherDisplay:10.37,2013-01-03 22:30:00,
2013-01-03 14:35:00,54.9,44.1,30.07,South,180,8.1,8.1,67,0.00,CLR,,0.00,WeatherDisplay:10.37,2013-01-03 22:35:00,
2013-01-03 14:40:00,54.7,43.9,30.08,SW,225,8.1,8.1,67,0.00,CLR,,0.00,WeatherDisplay:10.37,2013-01-03 22:40:00,
2013-01-03 14:45:00,54.9,44.1,30.08,South,180,8.1,8.1,67,0.00,CLR,,0.00,WeatherDisplay:10.37,2013-01-03 22:45:00,
2013-01-03 14:50:00,54.7,44.3,30.08,SW,225,5.8,5.8,68,0.00,CLR,,0.00,WeatherDisplay:10.37,2013-01-03 22:50:00,
2013-01-03 14:55:00,54.5,44.2,30.08,South,180,10.4,10.4,68,0.00,CLR,,0.00,WeatherDisplay:10.37,2013-01-03 22:55:00,
2013-01-03 15:00:00,54.5,43.8,30.09,SSW,202,12.7,12.7,67,0.00,CLR,,0.00,WeatherDisplay:10.37,2013-01-03 23:00:00,
2013-01-03 15:05:00,54.5,43.8,30.09,South,180,10.4,10.4,67,0.00,CLR,,0.00,WeatherDisplay:10.37,2013-01-03 23:05:00,
2013-01-03 15:10:00,54.7,43.9,30.09,South,180,12.7,12.7,67,0.00,CLR,,0.00,WeatherDisplay:10.37,2013-01-03 23:10:00,
2013-01-03 15:15:00,54.7,43.9,30.09,South,180,12.7,12.7,67,0.00,CLR,,0.00,WeatherDisplay:10.37,2013-01-03 23:15:00,
2013-01-03 15:20:00,54.7,43.9,30.10,SW,225,15.0,15.0,67,0.00,CLR,,0.00,WeatherDisplay:10.37,2013-01-03 23:20:00,
2013-01-03 15:25:00,54.3,44.4,30.10,South,180,10.4,10.4,69,0.00,CLR,,0.00,WeatherDisplay:10.37,2013-01-03 23:25:00,
2013-01-03 15:30:00,54.3,44.4,30.10,South,180,8.1,8.1,69,0.00,CLR,,0.00,WeatherDisplay:10.37,2013-01-03 23:30:00,
2013-01-03 15:35:00,54.1,44.2,30.10,SE,135,16.1,16.1,69,0.00,CLR,,0.00,WeatherDisplay:10.37,2013-01-03 23:35:00,
2013-01-03 15:40:00,53.8,44.6,30.11,SW,225,17.3,17.3,71,0.00,CLR,,0.00,WeatherDisplay:10.37,2013-01-03 23:40:00,
2013-01-03 15:45:00,53.8,44.6,30.11,SSW,202,19.6,19.6,71,0.00,CLR,,0.00,WeatherDisplay:10.37,2013-01-03 23:45:00,
2013-01-03 15:50:00,53.6,44.4,30.11,SSW,202,19.6,19.6,71,0.00,CLR,,0.00,WeatherDisplay:10.37,2013-01-03 23:50:00,
2013-01-03 15:55:00,53.4,45.0,30.11,South,180,10.4,10.4,73,0.00,CLR,,0.00,WeatherDisplay:10.37,2013-01-03 23:55:00,
2013-01-03 16:00:00,53.1,45.0,30.11,SE,135,10.4,10.4,74,0.00,CLR,,0.00,WeatherDisplay:10.37,2013-01-04 00:00:00,
2013-01-03 16:05:00,53.2,45.2,30.11,South,180,15.0,15.0,74,0.00,CLR,,0.00,WeatherDisplay:10.37,2013-01-04 00:05:00,
2013-01-03 16:10:00,53.2,45.5,30.12,South,180,8.1,8.1,75,0.00,CLR,,0.00,WeatherDisplay:10.37,2013-01-04 00:10:00,
2013-01-03 16:15:00,52.9,44.8,30.12,South,180,15.0,15.0,74,0.00,CLR,,0.00,WeatherDisplay:10.37,2013-01-04 00:15:00,
2013-01-03 16:20:00,52.9,44.8,30.12,South,180,13.8,13.8,74,0.00,CLR,,0.00,WeatherDisplay:10.37,2013-01-04 00:20:00,
2013-01-03 16:25:00,52.9,44.8,30.12,SE,135,19.6,19.6,74,0.00,CLR,,0.00,WeatherDisplay:10.37,2013-01-04 00:25:00,
2013-01-03 16:30:00,52.5,44.8,30.13,SSE,158,15.0,15.0,75,0.00,CLR,,0.00,WeatherDisplay:10.37,2013-01-04 00:30:00,
2013-01-03 16:35:00,52.5,45.2,30.13,SE,135,11.5,11.5,76,0.00,CLR,,0.00,WeatherDisplay:10.37,2013-01-04 00:35:00,
2013-01-03 16:40:00,52.3,45.0,30.13,SW,225,14.5,14.5,76,0.00,CLR,,0.00,WeatherDisplay:10.37,2013-01-04 00:40:00,
2013-01-03 16:45:00,51.8,45.5,30.13,South,180,11.5,11.5,79,0.00,CLR,,0.00,WeatherDisplay:10.37,2013-01-04 00:45:00,
2013-01-03 16:50:00,51.6,45.7,30.14,South,180,18.4,18.4,80,0.00,CLR,,0.00,WeatherDisplay:10.37,2013-01-04 00:50:00,
2013-01-03 16:56:00,51.4,45.8,30.14,South,180,17.3,17.3,81,0.00,CLR,,0.00,WeatherDisplay:10.37,2013-01-04 00:56:00,
2013-01-03 17:01:00,51.4,45.8,30.14,South,180,12.7,12.7,81,0.00,CLR,,0.00,WeatherDisplay:10.37,2013-01-04 01:01:00,
2013-01-03 17:06:00,51.6,45.7,30.14,SSE,158,10.4,10.7,80,0.00,CLR,,0.00,WeatherDisplay:10.37,2013-01-04 01:06:00,
2013-01-03 17:11:00,51.1,46.1,30.14,SW,225,8.1,8.1,83,0.00,CLR,,0.00,WeatherDisplay:10.37,2013-01-04 01:11:00,
2013-01-03 17:16:00,50.5,46.5,30.14,South,180,15.0,15.0,86,0.00,CLR,,0.00,WeatherDisplay:10.37,2013-01-04 01:16:00,
2013-01-03 17:21:00,50.4,46.6,30.15,SE,135,10.4,10.4,87,0.00,CLR,,0.00,WeatherDisplay:10.37,2013-01-04 01:21:00,
2013-01-03 17:26:00,50.2,46.8,30.15,South,180,8.1,8.1,88,0.00,CLR,,0.00,WeatherDisplay:10.37,2013-01-04 01:26:00,
2013-01-03 17:31:00,50.2,46.8,30.15,South,180,10.4,10.4,88,0.00,CLR,,0.00,WeatherDisplay:10.37,2013-01-04 01:31:00,
2013-01-03 17:36:00,50.2,46.8,30.15,South,180,8.1,8.1,88,0.00,CLR,,0.00,WeatherDisplay:10.37,2013-01-04 01:36:00,
2013-01-03 17:41:00,50.4,46.6,30.16,SW,225,8.3,8.3,87,0.00,CLR,,0.00,WeatherDisplay:10.37,2013-01-04 01:41:00,
2013-01-03 17:46:00,50.5,46.8,30.16,SSW,202,8.1,8.1,87,0.00,CLR,,0.00,WeatherDisplay:10.37,2013-01-04 01:46:00,
2013-01-03 17:51:00,50.5,46.5,30.16,South,180,4.6,4.6,86,0.00,CLR,,0.00,WeatherDisplay:10.37,2013-01-04 01:51:00,
2013-01-03 17:56:00,50.5,46.5,30.16,South,180,5.8,6.0,86,0.00,CLR,,0.00,WeatherDisplay:10.37,2013-01-04 01:56:00,
2013-01-03 18:01:00,50.7,46.4,30.16,South,180,5.8,5.8,85,0.00,CLR,,0.00,WeatherDisplay:10.37,2013-01-04 02:01:00,
2013-01-03 18:06:00,50.7,46.4,30.16,SW,225,9.8,9.8,85,0.00,CLR,,0.00,WeatherDisplay:10.37,2013-01-04 02:06:00,
2013-01-03 18:11:00,50.9,46.2,30.16,South,180,10.4,10.4,84,0.00,CLR,,0.00,WeatherDisplay:10.37,2013-01-04 02:11:00,
2013-01-03 18:16:00,50.9,46.2,30.17,South,180,8.1,8.1,84,0.00,CLR,,0.00,WeatherDisplay:10.37,2013-01-04 02:16:00,
2013-01-03 18:21:00,51.1,46.4,30.17,South,180,9.2,9.2,84,0.00,CLR,,0.00,WeatherDisplay:10.37,2013-01-04 02:21:00,
2013-01-03 18:26:00,51.1,46.4,30.17,SE,135,6.9,6.9,84,0.00,CLR,,0.00,WeatherDisplay:10.37,2013-01-04 02:26:00,
2013-01-03 18:31:00,50.9,46.6,30.17,South,180,5.8,5.8,85,0.00,CLR,,0.00,WeatherDisplay:10.37,2013-01-04 02:31:00,
2013-01-03 18:36:00,50.7,46.4,30.17,South,180,8.1,8.1,85,0.00,CLR,,0.00,WeatherDisplay:10.37,2013-01-04 02:36:00,
2013-01-03 18:41:00,50.9,46.6,30.17,South,180,9.2,9.2,85,0.00,CLR,,0.00,WeatherDisplay:10.37,2013-01-04 02:41:00,
2013-01-03 18:46:00,51.1,46.4,30.18,South,180,8.1,8.1,84,0.00,CLR,,0.00,WeatherDisplay:10.37,2013-01-04 02:46:00,
2013-01-03 18:51:00,50.9,46.6,30.18,SW,225,9.2,9.2,85,0.00,CLR,,0.00,WeatherDisplay:10.37,2013-01-04 02:51:00,
2013-01-03 18:56:00,50.7,47.0,30.19,South,180,17.3,17.3,87,0.00,CLR,,0.00,WeatherDisplay:10.37,2013-01-04 02:56:00,
2013-01-03 19:01:00,50.4,47.2,30.19,SW,225,15.0,15.0,89,0.00,CLR,,0.00,WeatherDisplay:10.37,2013-01-04 03:01:00,
2013-01-03 19:06:00,50.0,47.5,30.19,South,180,6.9,6.9,91,0.00,CLR,,0.00,WeatherDisplay:10.37,2013-01-04 03:06:00,
2013-01-03 19:11:00,49.6,47.7,30.19,South,180,9.2,9.2,93,0.00,CLR,,0.00,WeatherDisplay:10.37,2013-01-04 03:11:00,
2013-01-03 19:16:00,49.5,47.8,30.20,SSW,202,8.1,8.1,94,0.00,CLR,,0.00,WeatherDisplay:10.37,2013-01-04 03:16:00,
2013-01-03 19:21:00,49.5,48.1,30.20,SW,225,9.2,9.2,95,0.00,CLR,,0.00,WeatherDisplay:10.37,2013-01-04 03:21:00,
2013-01-03 19:26:00,49.5,48.1,30.20,SW,225,6.9,6.9,95,0.01,RA,,0.01,WeatherDisplay:10.37,2013-01-04 03:26:00,
2013-01-03 19:31:00,49.5,48.1,30.20,South,180,8.1,8.1,95,0.01,RA,,0.01,WeatherDisplay:10.37,2013-01-04 03:31:00,
2013-01-03 19:36:00,49.1,48.0,30.20,South,180,5.8,5.8,96,0.01,CLR,,0.01,WeatherDisplay:10.37,2013-01-04 03:36:00,
2013-01-03 19:41:00,49.1,48.0,30.20,South,180,5.8,5.8,96,0.02,RA,,0.02,WeatherDisplay:10.37,2013-01-04 03:41:00,
2013-01-03 19:46:00,49.1,48.0,30.21,South,180,2.3,2.3,96,0.02,RA,,0.02,WeatherDisplay:10.37,2013-01-04 03:46:00,
2013-01-03 19:51:00,49.1,48.3,30.20,SW,225,3.5,3.5,97,0.02,CLR,,0.02,WeatherDisplay:10.37,2013-01-04 03:51:00,
2013-01-03 19:56:00,49.1,48.3,30.21,SW,225,2.3,2.3,97,0.02,CLR,,0.02,WeatherDisplay:10.37,2013-01-04 03:56:00,
2013-01-03 20:11:00,48.9,48.1,30.22,South,180,2.3,2.3,97,0.04,RA,,0.05,WeatherDisplay:10.37,2013-01-04 04:11:00,
2013-01-03 20:16:00,48.9,48.1,30.21,East,90,3.5,3.5,97,0.05,RA,,0.05,WeatherDisplay:10.37,2013-01-04 04:16:00,
2013-01-03 20:21:00,48.9,48.1,30.22,South,180,4.6,4.6,97,0.05,RA,,0.05,WeatherDisplay:10.37,2013-01-04 04:21:00,
2013-01-03 20:26:00,48.9,48.1,30.22,SSE,158,3.5,3.5,97,0.05,CLR,,0.05,WeatherDisplay:10.37,2013-01-04 04:26:00,
2013-01-03 20:31:00,49.1,48.6,30.22,South,180,4.6,4.6,98,0.06,RA,,0.06,WeatherDisplay:10.37,2013-01-04 04:31:00,
2013-01-03 20:36:00,49.1,48.6,30.22,South,180,8.1,8.1,98,0.05,RA,,0.06,WeatherDisplay:10.37,2013-01-04 04:36:00,
2013-01-03 20:41:00,49.3,48.7,30.22,SW,225,5.8,5.8,98,0.05,CLR,,0.06,WeatherDisplay:10.37,2013-01-04 04:41:00,
2013-01-03 20:46:00,49.3,48.7,30.22,South,180,12.7,12.7,98,0.05,CLR,,0.06,WeatherDisplay:10.37,2013-01-04 04:46:00,
2013-01-03 20:51:00,49.5,48.9,30.23,SW,225,6.9,6.9,98,0.04,CLR,,0.06,WeatherDisplay:10.37,2013-01-04 04:51:00,
2013-01-03 21:13:00,49.5,48.9,30.23,SW,225,6.9,6.9,98,0.04,CLR,,0.06,WeatherDisplay:10.37,2013-01-04 05:13:00,
2013-01-03 21:18:00,49.3,48.7,30.24,SW,225,3.5,3.5,98,0.05,RA,,0.07,WeatherDisplay:10.37,2013-01-04 05:18:00,
2013-01-03 21:23:00,49.3,48.7,30.24,SW,225,5.8,5.8,98,0.05,RA,,0.07,WeatherDisplay:10.37,2013-01-04 05:23:00,
2013-01-03 21:28:00,49.3,48.7,30.23,South,180,3.8,3.8,98,0.05,CLR,,0.07,WeatherDisplay:10.37,2013-01-04 05:28:00,
2013-01-03 21:33:00,49.3,48.7,30.24,South,180,4.6,4.6,98,0.02,CLR,,0.07,WeatherDisplay:10.37,2013-01-04 05:33:00,
2013-01-03 21:38:00,49.3,48.7,30.24,SE,135,8.1,8.1,98,0.04,RA,,0.08,WeatherDisplay:10.37,2013-01-04 05:38:00,
2013-01-03 21:43:00,49.3,48.7,30.24,South,180,4.6,4.6,98,0.04,RA,,0.08,WeatherDisplay:10.37,2013-01-04 05:43:00,
2013-01-03 21:48:00,49.3,48.7,30.24,South,180,5.8,5.8,98,0.04,,,0.08,WeatherDisplay:10.37,2013-01-04 05:48:00,
2013-01-03 21:53:00,49.3,48.7,30.24,South,180,4.6,4.6,98,0.02,CLR,,0.08,WeatherDisplay:10.37,2013-01-04 05:53:00,
2013-01-03 21:58:00,49.1,48.6,30.24,South,180,1.1,0.0,98,0.02,CLR,,0.08,WeatherDisplay:10.37,2013-01-04 05:58:00,
2013-01-03 22:03:00,49.1,48.6,30.25,SW,225,0.0,0.0,98,0.04,RA,,0.09,WeatherDisplay:10.37,2013-01-04 06:03:00,
2013-01-03 22:08:00,49.1,48.6,30.25,SW,225,3.5,3.5,98,0.04,RA,,0.09,WeatherDisplay:10.37,2013-01-04 06:08:00,
2013-01-03 22:13:00,49.3,48.7,30.25,SW,225,4.6,4.6,98,0.04,CLR,,0.09,WeatherDisplay:10.37,2013-01-04 06:13:00,
2013-01-03 22:18:00,49.1,48.6,30.25,South,180,5.8,5.8,98,0.02,CLR,,0.09,WeatherDisplay:10.37,2013-01-04 06:18:00,
2013-01-03 22:23:00,49.1,48.6,30.25,South,180,5.8,5.8,98,0.02,CLR,,0.09,WeatherDisplay:10.37,2013-01-04 06:23:00,
2013-01-03 22:28:00,48.9,48.4,30.25,SW,225,4.6,4.6,98,0.02,CLR,,0.09,WeatherDisplay:10.37,2013-01-04 06:28:00,
2013-01-03 22:33:00,48.9,48.4,30.26,SW,225,5.8,5.8,98,0.02,CLR,,0.09,WeatherDisplay:10.37,2013-01-04 06:33:00,
2013-01-03 22:38:00,48.9,48.4,30.26,SW,225,5.8,5.8,98,0.01,CLR,,0.09,WeatherDisplay:10.37,2013-01-04 06:38:00,
2013-01-03 22:43:00,48.9,48.4,30.26,South,180,5.8,5.8,98,0.01,CLR,,0.09,WeatherDisplay:10.37,2013-01-04 06:43:00,
2013-01-03 22:48:00,48.7,48.5,30.26,SW,225,9.2,9.2,99,0.01,CLR,,0.09,WeatherDisplay:10.37,2013-01-04 06:48:00,
2013-01-03 22:53:00,48.7,48.5,30.26,SW,225,6.9,6.9,99,0.01,CLR,,0.09,WeatherDisplay:10.37,2013-01-04 06:53:00,
2013-01-03 22:58:00,48.6,48.3,30.26,SW,225,4.6,4.6,99,0.01,CLR,,0.09,WeatherDisplay:10.37,2013-01-04 06:58:00,
2013-01-03 23:03:00,48.6,48.3,30.26,SW,225,5.8,5.8,99,0.00,CLR,,0.09,WeatherDisplay:10.37,2013-01-04 07:03:00,
2013-01-03 23:08:00,48.6,48.3,30.26,South,180,3.5,3.5,99,0.00,CLR,,0.09,WeatherDisplay:10.37,2013-01-04 07:08:00,
2013-01-03 23:13:00,48.6,48.3,30.26,SW,225,5.8,5.8,99,0.00,CLR,,0.09,WeatherDisplay:10.37,2013-01-04 07:13:00,
2013-01-03 23:18:00,48.6,48.3,30.26,SW,225,6.9,6.9,99,0.00,CLR,,0.09,WeatherDisplay:10.37,2013-01-04 07:18:00,
2013-01-03 23:23:00,48.4,48.1,30.26,SW,225,5.8,5.8,99,0.00,CLR,,0.09,WeatherDisplay:10.37,2013-01-04 07:23:00,
2013-01-03 23:28:00,48.4,48.1,30.27,South,180,5.8,5.8,99,0.00,CLR,,0.09,WeatherDisplay:10.37,2013-01-04 07:28:00,
2013-01-03 23:33:00,48.4,48.1,30.27,South,180,3.5,3.8,99,0.00,CLR,,0.09,WeatherDisplay:10.37,2013-01-04 07:33:00,
2013-01-03 23:38:00,48.2,47.9,30.27,SW,225,3.5,3.5,99,0.00,CLR,,0.09,WeatherDisplay:10.37,2013-01-04 07:38:00,
2013-01-03 23:43:00,48.2,47.9,30.27,SW,225,3.5,3.5,99,0.00,CLR,,0.09,WeatherDisplay:10.37,2013-01-04 07:43:00,
2013-01-03 23:48:00,48.2,47.9,30.27,South,180,3.5,3.5,99,0.00,CLR,,0.09,WeatherDisplay:10.37,2013-01-04 07:48:00,
2013-01-03 23:53:00,48.0,47.8,30.27,SE,135,3.5,3.5,99,0.00,CLR,,0.09,WeatherDisplay:10.37,2013-01-04 07:53:00,
2013-01-03 23:58:00,48.0,47.8,30.27,SW,225,2.3,2.3,99,0.00,CLR,,0.09,WeatherDisplay:10.37,2013-01-04 07:58:00,